KQA721 EFOU-ENBR

Flight info

Callsign KQA721
Flight time 1h 44m
Altitude 38000
Route XEVAP DCT LUNUR
Aircraft A20N/M-SDE2E3FGHIRWXY/LB1

Departure

Time 2026-04-27 16:25
Airport Oulu Airport (EFOU)

Arrival

Time 2026-04-27 18:09
Airport Bergen Airport, Flesland (ENBR)
Time Latitude Longitude Altitude Speed Heading
2026-04-27 15:57 64.92895 25.37027 46 ft 0 kts 301°
2026-04-27 15:59 64.92808 25.37365 45 ft 0 kts 32°
2026-04-27 16:14 64.92797 25.37348 45 ft 4 kts 52°
2026-04-27 16:15 64.92783 25.37281 44 ft 0 kts 66°
2026-04-27 16:18 64.92765 25.37356 45 ft 6 kts 147°
2026-04-27 16:19 64.92718 25.37427 44 ft 10 kts 145°
2026-04-27 16:19 64.92668 25.37575 43 ft 13 kts 122°
2026-04-27 16:20 64.92547 25.37948 43 ft 9 kts 170°
2026-04-27 16:20 64.92516 25.37930 43 ft 0 kts 210°
2026-04-27 16:22 64.92515 25.37929 43 ft 1 kts 210°
2026-04-27 16:22 64.92475 25.37802 41 ft 10 kts 244°
2026-04-27 16:22 64.92463 25.37639 42 ft 10 kts 295°
2026-04-27 16:23 64.92466 25.37624 40 ft 0 kts 299°
2026-04-27 16:24 64.92623 25.37001 44 ft 90 kts 300°
2026-04-27 16:25 64.93680 25.32973 821 ft 165 kts 306°
2026-04-27 16:25 64.94130 25.28221 2667 ft 163 kts 235°
2026-04-27 16:26 64.92008 25.25367 3763 ft 194 kts 226°
2026-04-27 16:26 64.91422 25.18796 4747 ft 234 kts 276°
2026-04-27 16:27 64.91460 25.10835 6240 ft 253 kts 265°
2026-04-27 16:27 64.90410 24.97771 8709 ft 279 kts 257°
2026-04-27 16:28 64.89535 24.89084 10417 ft 291 kts 257°
2026-04-27 16:28 64.88540 24.79102 11182 ft 335 kts 257°
2026-04-27 16:29 64.86905 24.62781 13557 ft 349 kts 257°
2026-04-27 16:30 64.85772 24.51502 15098 ft 357 kts 257°
2026-04-27 16:30 64.84624 24.40068 16537 ft 365 kts 257°
2026-04-27 16:31 64.82719 24.22450 18586 ft 375 kts 251°
2026-04-27 16:31 64.80996 24.10857 19932 ft 380 kts 251°
2026-04-27 16:32 64.79344 23.99013 21290 ft 382 kts 252°
2026-04-27 16:32 64.78545 23.93056 21960 ft 383 kts 252°
2026-04-27 16:33 64.76939 23.81126 23312 ft 383 kts 252°
2026-04-27 16:33 64.76143 23.75236 23980 ft 382 kts 252°
2026-04-27 16:33 64.75347 23.69349 24649 ft 381 kts 252°
2026-04-27 16:33 64.74541 23.63416 25325 ft 378 kts 252°
2026-04-27 16:34 64.73742 23.57539 26002 ft 376 kts 252°
2026-04-27 16:34 64.72959 23.51791 26666 ft 372 kts 252°
2026-04-27 16:34 64.72173 23.46041 27339 ft 367 kts 252°
2026-04-27 16:34 64.71407 23.40448 27993 ft 362 kts 252°
2026-04-27 16:35 64.70644 23.34889 28669 ft 355 kts 252°
2026-04-27 16:35 64.69893 23.29430 29340 ft 347 kts 252°
2026-04-27 16:35 64.68452 23.18986 30552 ft 333 kts 252°
2026-04-27 16:36 64.67737 23.13819 30830 ft 335 kts 252°
2026-04-27 16:36 64.67015 23.08619 31097 ft 337 kts 253°
2026-04-27 16:36 64.66273 23.03403 31350 ft 339 kts 252°
2026-04-27 16:36 64.65545 22.98176 31752 ft 336 kts 252°
2026-04-27 16:37 64.64831 22.93043 32031 ft 337 kts 252°
2026-04-27 16:37 64.64101 22.87804 32250 ft 339 kts 252°
2026-04-27 16:37 64.63367 22.82543 32488 ft 341 kts 252°
2026-04-27 16:37 64.62598 22.77269 32595 ft 347 kts 249°
2026-04-27 16:38 64.61732 22.71993 32740 ft 351 kts 249°
2026-04-27 16:38 64.60857 22.66646 32978 ft 353 kts 250°
2026-04-27 16:38 64.60023 22.61332 33210 ft 355 kts 250°
2026-04-27 16:38 64.59198 22.55886 33427 ft 357 kts 251°
2026-04-27 16:39 64.58382 22.50398 33641 ft 358 kts 251°
2026-04-27 16:39 64.57575 22.44939 33848 ft 360 kts 251°
2026-04-27 16:39 64.56785 22.39598 34048 ft 362 kts 251°
2026-04-27 16:39 64.55959 22.34037 34248 ft 364 kts 251°
2026-04-27 16:40 64.55126 22.28439 34442 ft 365 kts 251°
2026-04-27 16:40 64.54290 22.22848 34639 ft 367 kts 251°
2026-04-27 16:40 64.53457 22.17297 34822 ft 369 kts 251°
2026-04-27 16:40 64.52606 22.11644 35017 ft 370 kts 251°
2026-04-27 16:41 64.51749 22.05971 35195 ft 372 kts 251°
2026-04-27 16:41 64.50888 22.00289 35375 ft 373 kts 251°
2026-04-27 16:41 64.50027 21.94622 35550 ft 375 kts 250°
2026-04-27 16:41 64.49156 21.88912 35724 ft 376 kts 250°
2026-04-27 16:42 64.48271 21.83126 35890 ft 378 kts 250°
2026-04-27 16:42 64.47397 21.77429 36061 ft 379 kts 250°
2026-04-27 16:42 64.46509 21.71664 36209 ft 380 kts 250°
2026-04-27 16:42 64.45643 21.66055 36355 ft 382 kts 250°
2026-04-27 16:43 64.44744 21.60250 36498 ft 383 kts 250°
2026-04-27 16:43 64.43839 21.54427 36638 ft 385 kts 250°
2026-04-27 16:43 64.42925 21.48565 36782 ft 386 kts 250°
2026-04-27 16:43 64.42019 21.42775 36911 ft 388 kts 250°
2026-04-27 16:44 64.41096 21.36892 37057 ft 389 kts 250°
2026-04-27 16:44 64.40166 21.30985 37173 ft 390 kts 250°
2026-04-27 16:44 64.39234 21.25082 37311 ft 392 kts 250°
2026-04-27 16:44 64.38291 21.19135 37430 ft 393 kts 250°
2026-04-27 16:45 64.37359 21.13270 37559 ft 394 kts 250°
2026-04-27 16:45 64.36406 21.07296 37684 ft 395 kts 250°
2026-04-27 16:45 64.35449 21.01312 37797 ft 397 kts 250°
2026-04-27 16:45 64.34484 20.95300 37915 ft 398 kts 250°
2026-04-27 16:46 64.33528 20.89363 38001 ft 400 kts 250°
2026-04-27 16:46 64.31559 20.77195 38000 ft 409 kts 249°
2026-04-27 16:47 64.29544 20.64828 38001 ft 418 kts 249°
2026-04-27 16:47 64.27460 20.52122 38001 ft 427 kts 249°
2026-04-27 16:48 64.25443 20.39902 38001 ft 436 kts 249°
2026-04-27 16:48 64.23260 20.26769 38001 ft 445 kts 249°
2026-04-27 16:49 64.19896 20.06705 38000 ft 448 kts 249°
2026-04-27 16:49 64.17653 19.93444 38000 ft 448 kts 249°
2026-04-27 16:50 64.15385 19.80131 38000 ft 447 kts 249°
2026-04-27 16:50 64.13101 19.66818 38006 ft 449 kts 249°
2026-04-27 16:51 64.10803 19.53515 38001 ft 449 kts 248°
2026-04-27 16:51 64.08508 19.40318 38000 ft 447 kts 248°
2026-04-27 16:52 64.06193 19.27103 38000 ft 448 kts 248°
2026-04-27 16:52 64.03868 19.13916 38000 ft 448 kts 248°
2026-04-27 16:53 64.01522 19.00701 38000 ft 448 kts 248°
2026-04-27 16:53 63.99177 18.87578 38003 ft 449 kts 248°
2026-04-27 16:54 63.96801 18.74378 38009 ft 450 kts 248°
2026-04-27 16:54 63.94423 18.61249 38001 ft 449 kts 249°
2026-04-27 16:55 63.92110 18.48050 37987 ft 448 kts 249°
2026-04-27 16:55 63.89795 18.34920 37941 ft 448 kts 246°
2026-04-27 16:56 63.87262 18.21922 37901 ft 448 kts 246°
2026-04-27 16:56 63.84807 18.08991 37851 ft 449 kts 247°
2026-04-27 16:57 63.82367 17.95983 37801 ft 449 kts 247°
2026-04-27 16:57 63.79912 17.82950 37868 ft 449 kts 247°
2026-04-27 16:58 63.78680 17.76442 38070 ft 448 kts 247°
2026-04-27 16:58 63.77466 17.70052 38265 ft 448 kts 247°
2026-04-27 16:58 63.76232 17.63579 38390 ft 448 kts 247°
2026-04-27 16:58 63.74990 17.57083 38269 ft 446 kts 246°
2026-04-27 16:59 63.73759 17.50667 38043 ft 444 kts 246°
2026-04-27 16:59 63.72536 17.44317 38001 ft 447 kts 246°
2026-04-27 16:59 63.70029 17.31354 38000 ft 449 kts 246°
2026-04-27 17:00 63.66275 17.12099 38000 ft 448 kts 246°
2026-04-27 17:01 63.63752 16.99263 38000 ft 448 kts 246°
2026-04-27 17:01 63.61642 16.88587 38004 ft 449 kts 246°
2026-04-27 17:02 63.59097 16.75785 38010 ft 449 kts 246°
2026-04-27 17:02 63.56529 16.62942 38006 ft 450 kts 246°
2026-04-27 17:03 63.53956 16.50171 38000 ft 448 kts 246°
2026-04-27 17:03 63.51388 16.37494 38000 ft 448 kts 245°
2026-04-27 17:04 63.48794 16.24763 38000 ft 448 kts 245°
2026-04-27 17:04 63.46193 16.12074 38000 ft 449 kts 245°
2026-04-27 17:05 63.43573 15.99372 38006 ft 451 kts 245°
2026-04-27 17:05 63.40944 15.86703 38000 ft 449 kts 245°
2026-04-27 17:06 63.38322 15.74147 38000 ft 449 kts 245°
2026-04-27 17:06 63.35670 15.61521 38000 ft 449 kts 245°
2026-04-27 17:07 63.33010 15.48937 38000 ft 449 kts 245°
2026-04-27 17:07 63.30336 15.36359 38001 ft 449 kts 245°
2026-04-27 17:08 63.27674 15.23913 37999 ft 448 kts 244°
2026-04-27 17:08 63.24982 15.11397 38001 ft 448 kts 244°
2026-04-27 17:09 63.22273 14.98883 37998 ft 448 kts 244°
2026-04-27 17:09 63.19577 14.86501 37997 ft 448 kts 244°
2026-04-27 17:10 63.16854 14.74067 37994 ft 448 kts 244°
2026-04-27 17:10 63.14117 14.61639 37998 ft 448 kts 244°
2026-04-27 17:11 63.11376 14.49266 37994 ft 448 kts 244°
2026-04-27 17:11 63.07251 14.30784 37998 ft 448 kts 244°
2026-04-27 17:12 63.03099 14.12342 37996 ft 449 kts 244°
2026-04-27 17:13 63.00304 14.00014 37990 ft 449 kts 243°
2026-04-27 17:13 62.97518 13.87797 37982 ft 449 kts 243°
2026-04-27 17:14 62.94702 13.75518 37994 ft 449 kts 243°
2026-04-27 17:14 62.91856 13.63181 38000 ft 453 kts 243°
2026-04-27 17:15 62.89018 13.50948 38000 ft 451 kts 243°
2026-04-27 17:15 62.86158 13.38689 38000 ft 450 kts 243°
2026-04-27 17:16 62.83290 13.26465 38000 ft 451 kts 243°
2026-04-27 17:16 62.80433 13.14353 38000 ft 450 kts 243°
2026-04-27 17:17 62.77619 13.02492 37994 ft 450 kts 243°
2026-04-27 17:17 62.74733 12.90398 37979 ft 449 kts 242°
2026-04-27 17:18 62.70375 12.72250 38000 ft 453 kts 243°
2026-04-27 17:18 62.67700 12.59927 38028 ft 451 kts 246°
2026-04-27 17:19 62.65225 12.47298 38077 ft 453 kts 246°
2026-04-27 17:19 62.62147 12.35512 38125 ft 452 kts 236°
2026-04-27 17:20 62.58780 12.23931 38169 ft 453 kts 240°
2026-04-27 17:20 62.55658 12.12038 38168 ft 453 kts 241°
2026-04-27 17:21 62.52646 12.00074 38009 ft 456 kts 241°
2026-04-27 17:21 62.49654 11.88089 37929 ft 449 kts 241°
2026-04-27 17:22 62.46658 11.76143 37929 ft 451 kts 241°
2026-04-27 17:22 62.43675 11.64329 37930 ft 452 kts 241°
2026-04-27 17:23 62.40642 11.52382 37928 ft 452 kts 241°
2026-04-27 17:23 62.37604 11.40480 37927 ft 452 kts 241°
2026-04-27 17:24 62.34553 11.28593 37929 ft 453 kts 241°
2026-04-27 17:24 62.31511 11.16804 37929 ft 452 kts 241°
2026-04-27 17:25 62.28431 11.04932 37930 ft 454 kts 241°
2026-04-27 17:25 62.25372 10.93206 37928 ft 451 kts 240°
2026-04-27 17:26 62.22282 10.81419 37930 ft 453 kts 240°
2026-04-27 17:26 62.19202 10.69735 37929 ft 451 kts 240°
2026-04-27 17:27 62.16083 10.57967 37926 ft 450 kts 240°
2026-04-27 17:27 62.12993 10.46370 37930 ft 451 kts 240°
2026-04-27 17:28 62.09857 10.34657 37930 ft 452 kts 240°
2026-04-27 17:29 62.05142 10.17166 37930 ft 454 kts 240°
2026-04-27 17:29 62.01991 10.05553 37931 ft 454 kts 240°
2026-04-27 17:30 61.98822 9.93931 37930 ft 453 kts 240°
2026-04-27 17:30 61.94041 9.76514 37930 ft 456 kts 240°
2026-04-27 17:31 61.90836 9.64913 37930 ft 457 kts 239°
2026-04-27 17:31 61.87617 9.53322 37928 ft 454 kts 239°
2026-04-27 17:32 61.82808 9.36115 37927 ft 448 kts 239°
2026-04-27 17:33 61.79612 9.24750 37929 ft 451 kts 239°
2026-04-27 17:33 61.76398 9.13379 37930 ft 453 kts 239°
2026-04-27 17:34 61.73145 9.01926 37930 ft 454 kts 239°
2026-04-27 17:34 61.69890 8.90527 37929 ft 454 kts 239°
2026-04-27 17:35 61.66630 8.79166 37931 ft 455 kts 239°
2026-04-27 17:35 61.63326 8.67710 37931 ft 458 kts 239°
2026-04-27 17:36 61.60030 8.56339 37931 ft 456 kts 239°
2026-04-27 17:36 61.56702 8.44913 37931 ft 461 kts 238°
2026-04-27 17:37 61.53375 8.33550 37930 ft 457 kts 239°
2026-04-27 17:37 61.50035 8.22190 37840 ft 457 kts 238°
2026-04-27 17:37 61.48360 8.16520 37588 ft 457 kts 238°
2026-04-27 17:38 61.46707 8.10821 37333 ft 455 kts 239°
2026-04-27 17:38 61.45076 8.05237 37059 ft 452 kts 238°
2026-04-27 17:38 61.43394 7.99624 36797 ft 452 kts 238°
2026-04-27 17:38 61.41735 7.94131 36544 ft 451 kts 238°
2026-04-27 17:39 61.40048 7.88536 36315 ft 454 kts 238°
2026-04-27 17:39 61.38370 7.82928 36060 ft 455 kts 238°
2026-04-27 17:39 61.36714 7.77382 35806 ft 453 kts 238°
2026-04-27 17:39 61.35033 7.71821 35555 ft 451 kts 238°
2026-04-27 17:40 61.33351 7.66282 35310 ft 454 kts 238°
2026-04-27 17:40 61.31655 7.60700 35057 ft 456 kts 238°
2026-04-27 17:40 61.29975 7.55149 34808 ft 456 kts 238°
2026-04-27 17:40 61.28276 7.49569 34559 ft 456 kts 238°
2026-04-27 17:41 61.26572 7.43989 34311 ft 456 kts 238°
2026-04-27 17:41 61.24865 7.38412 34063 ft 455 kts 238°
2026-04-27 17:41 61.23183 7.32924 33738 ft 449 kts 238°
2026-04-27 17:41 61.21494 7.27426 32938 ft 452 kts 237°
2026-04-27 17:42 61.19825 7.22002 32284 ft 450 kts 237°
2026-04-27 17:42 61.18137 7.16532 31562 ft 449 kts 237°
2026-04-27 17:42 61.16454 7.11090 30998 ft 445 kts 237°
2026-04-27 17:42 61.14788 7.05715 30451 ft 443 kts 237°
2026-04-27 17:43 61.13117 7.00336 29684 ft 440 kts 237°
2026-04-27 17:43 61.11479 6.95075 28801 ft 436 kts 237°
2026-04-27 17:43 61.09829 6.89788 27895 ft 431 kts 237°
2026-04-27 17:43 61.08224 6.84659 27000 ft 426 kts 237°
2026-04-27 17:44 61.06620 6.79538 26102 ft 422 kts 237°
2026-04-27 17:44 61.05025 6.74454 25200 ft 418 kts 237°
2026-04-27 17:44 61.03457 6.69458 24298 ft 414 kts 237°
2026-04-27 17:44 61.02413 6.66141 23725 ft 412 kts 237°
2026-04-27 17:45 61.00360 6.59598 22511 ft 406 kts 239°
2026-04-27 17:45 60.98859 6.54685 21615 ft 402 kts 239°
2026-04-27 17:45 60.97354 6.49849 20710 ft 397 kts 237°
2026-04-27 17:45 60.96347 6.46702 20097 ft 395 kts 237°
2026-04-27 17:46 60.94877 6.41976 19171 ft 389 kts 239°
2026-04-27 17:46 60.92956 6.35771 17883 ft 386 kts 237°
2026-04-27 17:46 60.91966 6.32726 17231 ft 385 kts 235°
2026-04-27 17:46 60.90464 6.28179 16257 ft 382 kts 237°
2026-04-27 17:47 60.88497 6.22204 14965 ft 379 kts 235°
2026-04-27 17:47 60.87996 6.20696 14637 ft 378 kts 236°
2026-04-27 17:47 60.85831 6.15102 13332 ft 374 kts 220°
2026-04-27 17:47 60.83650 6.12253 12360 ft 371 kts 205°
2026-04-27 17:48 60.81324 6.09996 11382 ft 368 kts 205°
2026-04-27 17:48 60.79149 6.07903 10613 ft 365 kts 205°
2026-04-27 17:48 60.77033 6.05860 10233 ft 357 kts 205°
2026-04-27 17:48 60.74828 6.03725 10049 ft 341 kts 205°
2026-04-27 17:49 60.72781 6.01739 9994 ft 314 kts 205°
2026-04-27 17:49 60.70895 5.99909 9996 ft 289 kts 205°
2026-04-27 17:49 60.69144 5.98209 10005 ft 268 kts 206°
2026-04-27 17:49 60.67463 5.96577 10003 ft 270 kts 206°
2026-04-27 17:50 60.65769 5.94936 9995 ft 265 kts 205°
2026-04-27 17:50 60.62646 5.91921 9996 ft 236 kts 205°
2026-04-27 17:50 60.61143 5.90474 9997 ft 242 kts 206°
2026-04-27 17:51 60.59611 5.88998 10006 ft 242 kts 206°
2026-04-27 17:51 60.58089 5.87534 10000 ft 241 kts 206°
2026-04-27 17:51 60.56576 5.86081 9999 ft 241 kts 206°
2026-04-27 17:51 60.55055 5.84622 10001 ft 241 kts 205°
2026-04-27 17:52 60.53532 5.83163 9998 ft 242 kts 205°
2026-04-27 17:52 60.52006 5.81704 10002 ft 241 kts 205°
2026-04-27 17:52 60.50510 5.80267 9999 ft 241 kts 206°
2026-04-27 17:52 60.48993 5.78799 9935 ft 241 kts 205°
2026-04-27 17:53 60.47467 5.77351 9719 ft 241 kts 205°
2026-04-27 17:53 60.45957 5.75924 9491 ft 238 kts 205°
2026-04-27 17:53 60.44458 5.74499 9270 ft 239 kts 208°
2026-04-27 17:53 60.42973 5.73000 9040 ft 236 kts 206°
2026-04-27 17:54 60.41510 5.71615 8810 ft 234 kts 205°
2026-04-27 17:54 60.40009 5.70237 8585 ft 235 kts 205°
2026-04-27 17:54 60.38539 5.68881 8361 ft 233 kts 205°
2026-04-27 17:54 60.37078 5.67516 8138 ft 233 kts 205°
2026-04-27 17:55 60.35604 5.66131 7918 ft 232 kts 205°
2026-04-27 17:55 60.34146 5.64755 7684 ft 231 kts 206°
2026-04-27 17:55 60.32639 5.63703 7447 ft 230 kts 187°
2026-04-27 17:55 60.31039 5.63894 7243 ft 231 kts 173°
2026-04-27 17:56 60.29447 5.64359 7015 ft 229 kts 173°
2026-04-27 17:56 60.27874 5.64829 6789 ft 229 kts 173°
2026-04-27 17:56 60.26313 5.65289 6569 ft 228 kts 172°
2026-04-27 17:56 60.24737 5.65716 6339 ft 227 kts 172°
2026-04-27 17:57 60.23169 5.66140 6101 ft 227 kts 173°
2026-04-27 17:57 60.21632 5.66579 5891 ft 226 kts 172°
2026-04-27 17:57 60.20060 5.67025 5661 ft 228 kts 173°
2026-04-27 17:57 60.18498 5.67458 5442 ft 226 kts 172°
2026-04-27 17:58 60.16950 5.67884 5214 ft 223 kts 172°
2026-04-27 17:58 60.15405 5.68299 4993 ft 224 kts 172°
2026-04-27 17:58 60.13870 5.68708 4768 ft 221 kts 172°
2026-04-27 17:58 60.12343 5.69117 4536 ft 221 kts 172°
2026-04-27 17:59 60.10824 5.69524 4313 ft 221 kts 172°
2026-04-27 17:59 60.09633 5.69844 4144 ft 219 kts 172°
2026-04-27 17:59 60.08118 5.70270 3905 ft 220 kts 174°
2026-04-27 17:59 60.06629 5.70056 3690 ft 217 kts 199°
2026-04-27 18:00 60.05217 5.68944 3599 ft 217 kts 202°
2026-04-27 18:00 60.03816 5.67795 3599 ft 218 kts 202°
2026-04-27 18:00 60.02423 5.66651 3599 ft 218 kts 202°
2026-04-27 18:00 60.01083 5.65282 3602 ft 218 kts 221°
2026-04-27 18:01 60.00242 5.62816 3604 ft 218 kts 251°
2026-04-27 18:01 59.99985 5.59847 3605 ft 216 kts 273°
2026-04-27 18:01 60.00228 5.56902 3599 ft 218 kts 282°
2026-04-27 18:01 60.00562 5.53943 3579 ft 216 kts 282°
2026-04-27 18:02 60.00894 5.51011 3582 ft 216 kts 282°
2026-04-27 18:02 60.01428 5.48224 3603 ft 216 kts 301°
2026-04-27 18:02 60.02236 5.45681 3599 ft 216 kts 302°
2026-04-27 18:02 60.03046 5.43185 3602 ft 216 kts 302°
2026-04-27 18:03 60.03863 5.40658 3600 ft 218 kts 302°
2026-04-27 18:03 60.04681 5.38116 3599 ft 216 kts 302°
2026-04-27 18:03 60.05502 5.35561 3522 ft 218 kts 302°
2026-04-27 18:03 60.06316 5.33035 3366 ft 213 kts 302°
2026-04-27 18:04 60.07187 5.30613 3211 ft 215 kts 320°
2026-04-27 18:04 60.08473 5.29340 3059 ft 207 kts 347°
2026-04-27 18:04 60.09849 5.28658 2927 ft 197 kts 348°
2026-04-27 18:04 60.11120 5.28011 2818 ft 182 kts 347°
2026-04-27 18:05 60.12336 5.27567 2662 ft 172 kts 348°
2026-04-27 18:05 60.13469 5.27123 2592 ft 158 kts 349°
2026-04-27 18:05 60.14497 5.26771 2594 ft 147 kts 349°
2026-04-27 18:05 60.15522 5.26427 2588 ft 147 kts 351°
2026-04-27 18:06 60.16518 5.26105 2509 ft 148 kts 350°
2026-04-27 18:06 60.17537 5.25766 2310 ft 147 kts 354°
2026-04-27 18:06 60.18501 5.25433 2117 ft 135 kts 349°
2026-04-27 18:06 60.19422 5.25131 1932 ft 134 kts 349°
2026-04-27 18:07 60.20339 5.24822 1748 ft 133 kts 353°
2026-04-27 18:07 60.21257 5.24518 1570 ft 133 kts 351°
2026-04-27 18:07 60.22154 5.24215 1395 ft 132 kts 349°
2026-04-27 18:07 60.23060 5.23913 1220 ft 132 kts 349°
2026-04-27 18:08 60.23966 5.23611 1044 ft 132 kts 349°
2026-04-27 18:08 60.24871 5.23310 869 ft 131 kts 349°
2026-04-27 18:08 60.25772 5.23009 690 ft 131 kts 351°
2026-04-27 18:08 60.26669 5.22703 519 ft 130 kts 349°
2026-04-27 18:09 60.27566 5.22407 356 ft 130 kts 349°
2026-04-27 18:09 60.28451 5.22113 181 ft 130 kts 350°
2026-04-27 18:09 60.29218 5.21851 164 ft 87 kts 351°
2026-04-27 18:09 60.29569 5.21737 167 ft 34 kts 356°
2026-04-27 18:10 60.29650 5.21716 168 ft 11 kts 352°
2026-04-27 18:10 60.29715 5.21822 168 ft 14 kts 75°
2026-04-27 18:10 60.29722 5.21912 168 ft 0 kts 85°
2026-04-27 18:11 60.29722 5.21941 168 ft 6 kts 91°
2026-04-27 18:11 60.29692 5.22017 168 ft 8 kts 161°
2026-04-27 18:11 60.29690 5.22018 168 ft 0 kts 162°
2026-04-27 18:13 60.29688 5.22020 168 ft 2 kts 162°
2026-04-27 18:13 60.29656 5.22037 168 ft 7 kts 166°
2026-04-27 18:13 60.29595 5.22057 167 ft 9 kts 173°
2026-04-27 18:13 60.29521 5.22077 167 ft 12 kts 171°
2026-04-27 18:14 60.29486 5.22089 166 ft 3 kts 171°
2026-04-27 18:14 60.29457 5.22099 166 ft 4 kts 169°
2026-04-27 18:14 60.29410 5.22168 166 ft 13 kts 128°
2026-04-27 18:14 60.29323 5.22271 165 ft 17 kts 167°
2026-04-27 18:15 60.29214 5.22303 164 ft 16 kts 172°
2026-04-27 18:15 60.29135 5.22330 163 ft 12 kts 169°
2026-04-27 18:15 60.29087 5.22344 163 ft 1 kts 172°
2026-04-27 18:15 60.29061 5.22359 163 ft 6 kts 154°
2026-04-27 18:16 60.29031 5.22435 162 ft 7 kts 121°
2026-04-27 18:16 60.29004 5.22497 162 ft 1 kts 134°
2026-04-27 18:16 60.28991 5.22522 162 ft 4 kts 136°
2026-04-27 18:16 60.28980 5.22545 162 ft 3 kts 136°
2026-04-27 18:17 60.28976 5.22553 162 ft 0 kts 136°